TimeEDT,TemperatureF,Dew PointF,Humidity,Sea Level PressureIn,VisibilityMPH,Wind Direction,Wind SpeedMPH,Gust SpeedMPH,PrecipitationIn,Events,Conditions,WindDirDegrees,DateUTC
12:53 AM,30.0,28.0,92,30.33,8.0,NNW,4.6,-,N/A,,Clear,340,2013-03-10 05:53:00
1:53 AM,30.0,28.0,92,30.34,7.0,NW,4.6,-,N/A,,Mostly Cloudy,320,2013-03-10 06:53:00
3:53 AM,30.9,28.9,92,30.33,7.0,Calm,Calm,-,N/A,,Overcast,0,2013-03-10 07:53:00
4:53 AM,32.0,28.9,88,30.34,7.0,North,4.6,-,N/A,,Overcast,350,2013-03-10 08:53:00
5:53 AM,32.0,28.9,88,30.35,7.0,NNW,3.5,-,N/A,,Overcast,340,2013-03-10 09:53:00
6:53 AM,32.0,30.0,92,30.36,6.0,North,3.5,-,N/A,,Overcast,350,2013-03-10 10:53:00
8:53 AM,35.1,32.0,89,30.38,8.0,Calm,Calm,-,N/A,,Overcast,0,2013-03-10 12:53:00
9:53 AM,37.0,30.9,79,30.38,10.0,NNE,5.8,-,N/A,,Overcast,30,2013-03-10 13:53:00
10:53 AM,37.9,28.9,70,30.40,10.0,NE,6.9,-,N/A,,Overcast,50,2013-03-10 14:53:00
11:53 AM,37.9,30.0,73,30.39,10.0,NE,10.4,-,N/A,,Overcast,50,2013-03-10 15:53:00
12:53 PM,39.9,28.9,65,30.38,10.0,ENE,5.8,-,N/A,,Mostly Cloudy,60,2013-03-10 16:53:00
1:23 PM,41.0,30.2,65,30.36,10.0,NE,9.2,-,N/A,,Scattered Clouds,40,2013-03-10 17:23:00
1:53 PM,41.0,30.0,65,30.36,10.0,NE,8.1,-,N/A,,Scattered Clouds,50,2013-03-10 17:53:00
2:53 PM,43.0,30.0,60,30.35,10.0,Calm,Calm,-,N/A,,Clear,0,2013-03-10 18:53:00
3:53 PM,45.0,30.0,56,30.34,10.0,Variable,3.5,-,N/A,,Partly Cloudy,0,2013-03-10 19:53:00
4:53 PM,44.1,30.0,58,30.33,10.0,NE,4.6,-,N/A,,Clear,40,2013-03-10 20:53:00
5:53 PM,42.1,30.9,65,30.33,10.0,East,5.8,-,N/A,,Clear,100,2013-03-10 21:53:00
6:53 PM,37.0,30.9,79,30.35,10.0,SE,8.1,-,N/A,,Clear,130,2013-03-10 22:53:00
7:53 PM,35.1,30.9,85,30.36,10.0,SE,4.6,-,N/A,,Clear,130,2013-03-10 23:53:00
8:53 PM,37.0,32.0,82,30.36,10.0,South,4.6,-,N/A,,Clear,170,2013-03-11 00:53:00
9:53 PM,35.6,30.2,81,30.35,10.0,South,6.9,-,N/A,,Clear,180,2013-03-11 01:53:00
10:19 PM,35.6,30.2,81,30.34,10.0,South,5.8,-,N/A,,Mostly Cloudy,170,2013-03-11 02:19:00
10:39 PM,35.6,30.2,81,30.34,10.0,SSE,5.8,-,N/A,,Scattered Clouds,150,2013-03-11 02:39:00
10:53 PM,35.1,30.9,85,30.35,10.0,SSW,4.6,-,N/A,,Clear,200,2013-03-11 02:53:00
11:51 PM,33.8,30.2,87,30.34,10.0,SSW,3.5,-,N/A,,Mostly Cloudy,200,2013-03-11 03:51:00
11:53 PM,34.0,30.9,89,30.34,9.0,South,4.6,-,N/A,,Mostly Cloudy,190,2013-03-11 03:53:00
12:53 AM,36.0,32.0,86,30.32,10.0,South,6.9,-,N/A,,Overcast,170,2013-03-11 04:53:00